FW5487 Weather Reports


Display with metric or nautical units.
time (UTC)temp
F
wind
direction
speed
MPH
gust
MPH
rain 1hr
in
rain 24hr
in
rain mn
in
humidity
%
barometer
mb
20260831101204 77 163 5.0 6.0 0.00 0.00 0.00 64 1000.0
20260831100703 77 146 4.0 6.0 0.00 0.00 0.00 64 1000.0
20260831100204 77 147 3.0 6.0 0.00 0.00 0.00 64 1000.0
20260831095703 78 148 4.0 6.0 0.00 0.00 0.00 63 1000.0
20260831095204 78 140 5.0 6.0 0.00 0.00 0.00 62 1000.0
20260831094703 78 135 5.0 6.0 0.00 0.00 0.00 62 1000.0
20260831094204 78 141 4.0 6.0 0.00 0.00 0.00 61 1000.0
20260831093703 78 137 4.0 6.0 0.00 0.00 0.00 61 1000.0
20260831093205 78 149 3.0 6.0 0.00 0.00 0.00 60 1000.0
20260831092204 79 148 4.0 7.0 0.00 0.00 0.00 60 1000.0
20260831091704 79 153 5.0 7.0 0.00 0.00 0.00 60 1000.0
20260831091204 79 150 5.0 8.0 0.00 0.00 0.00 60 1000.0
20260831090703 79 140 6.0 8.0 0.00 0.00 0.00 59 1000.0
20260831090203 79 170 6.0 8.0 0.00 0.00 0.00 59 1000.0
20260831085703 79 167 5.0 7.0 0.00 0.00 0.00 60 1000.0
20260831085204 79 166 3.0 7.0 0.00 0.00 0.00 60 1000.0
20260831084703 79 170 5.0 6.0 0.00 0.00 0.00 61 1000.0
20260831084204 79 151 5.0 7.0 0.00 0.00 0.00 60 1000.0
20260831083703 79 143 5.0 7.0 0.00 0.00 0.00 60 1000.0
20260831083203 80 174 4.0 7.0 0.00 0.00 0.00 59 1000.0
20260831082704 80 165 5.0 8.0 0.00 0.00 0.00 58 1000.0
20260831081703 80 166 4.0 6.0 0.00 0.00 0.00 58 1000.0
20260831081204 80 167 4.0 7.0 0.00 0.00 0.00 57 1000.0
20260831080203 80 155 5.0 7.0 0.00 0.00 0.00 57 1000.0
20260831075203 80 147 5.0 7.0 0.00 0.00 0.00 58 1000.0
20260831074204 81 159 3.0 8.0 0.00 0.00 0.00 57 1000.0
20260831073703 81 142 3.0 7.0 0.00 0.00 0.00 57 1000.0
20260831073203 81 145 5.0 9.0 0.00 0.00 0.00 56 1000.0
20260831072704 82 144 3.0 9.0 0.00 0.00 0.00 55 1000.0
20260831071703 82 178 4.0 9.0 0.00 0.00 0.00 54 1000.0
20260831071204 82 167 6.0 8.0 0.00 0.00 0.00 54 1000.0
20260831070703 82 165 6.0 15.0 0.00 0.00 0.00 53 1000.0
20260831070203 82 165 6.0 10.0 0.00 0.00 0.00 54 1000.0
20260831065203 83 175 5.0 9.0 0.00 0.00 0.00 54 1000.0
20260831064204 82 176 6.0 12.0 0.00 0.00 0.00 54 1000.0
20260831063703 83 148 6.0 12.0 0.00 0.00 0.00 54 1000.0
20260831063203 83 169 6.0 9.0 0.00 0.00 0.00 54 1000.0
20260831062704 83 142 6.0 9.0 0.00 0.00 0.00 53 1000.0
20260831062204 83 158 7.0 13.0 0.00 0.00 0.00 53 1000.0
20260831061704 83 147 7.0 13.0 0.00 0.00 0.00 53 1000.0
20260831061203 83 169 7.0 12.0 0.00 0.00 0.00 52 1000.0
20260831060703 83 175 7.0 12.0 0.00 0.00 0.00 52 1000.0
20260831060204 84 147 7.0 13.0 0.00 0.00 0.00 52 1000.0
20260831055704 84 111 7.0 13.0 0.00 0.00 0.00 52 1000.0
20260831055204 84 163 7.0 13.0 0.00 0.00 0.00 52 1000.0
20260831054703 84 122 8.0 15.0 0.00 0.00 0.00 52 1000.0
20260831054204 84 161 9.0 14.0 0.00 0.00 0.00 51 1000.0
20260831053704 84 173 9.0 14.0 0.00 0.00 0.00 51 1000.0
20260831053204 84 157 9.0 13.0 0.00 0.00 0.00 51 1000.0
20260831052704 84 154 7.0 12.0 0.00 0.00 0.00 52 1000.0
20260831052204 84 131 5.0 9.0 0.00 0.00 0.00 52 1000.0
20260831051703 84 134 7.0 10.0 0.00 0.00 0.00 51 1000.0
20260831051204 84 172 6.0 8.0 0.00 0.00 0.00 50 1000.0
20260831050703 85 165 5.0 9.0 0.00 0.00 0.00 50 1000.0
20260831050204 85 168 6.0 9.0 0.00 0.00 0.00 49 1000.0
20260831045704 85 168 7.0 10.0 0.00 0.00 0.00 49 1000.0
20260831045204 85 171 7.0 9.0 0.00 0.00 0.00 48 1000.0
20260831044703 85 170 7.0 9.0 0.00 0.00 0.00 48 1000.0
20260831044204 85 170 8.0 12.0 0.00 0.00 0.00 48 1000.0
20260831043704 86 176 7.0 9.0 0.00 0.00 0.00 48 1000.0
20260831043205 86 167 6.0 13.0 0.00 0.00 0.00 47 1000.0
20260831042204 86 174 9.0 13.0 0.00 0.00 0.00 47 1000.0
20260831041203 86 165 6.0 13.0 0.00 0.00 0.00 46 1000.0
20260831040703 86 166 7.0 15.0 0.00 0.00 0.00 46 1000.0
20260831040203 86 162 9.0 14.0 0.00 0.00 0.00 45 1000.0
20260831035704 87 175 8.0 13.0 0.00 0.00 0.00 45 1000.0
20260831034704 87 167 8.0 15.0 0.00 0.00 0.00 44 1000.0
20260831034204 87 174 7.0 13.0 0.00 0.00 0.00 44 1000.0
20260831033704 87 166 8.0 14.0 0.00 0.00 0.00 44 1000.0
20260831033203 87 146 6.0 13.0 0.00 0.00 0.00 44 1000.0
20260831032703 87 165 7.0 12.0 0.00 0.00 0.00 44 1000.0
20260831031703 87 159 7.0 15.0 0.00 0.00 0.00 43 1000.0
20260831031204 88 168 7.0 13.0 0.00 0.00 0.00 43 1000.0
20260831030704 88 169 9.0 13.0 0.00 0.00 0.00 43 1000.0
20260831025203 88 163 8.0 14.0 0.00 0.00 0.00 42 1000.0
20260831024704 88 140 6.0 14.0 0.00 0.00 0.00 43 1000.0
20260831024204 88 139 7.0 14.0 0.00 0.00 0.00 42 1000.0
20260831023203 88 158 8.0 14.0 0.00 0.00 0.00 42 1000.0
20260831022703 88 139 7.0 10.0 0.00 0.00 0.00 43 1000.0
20260831021704 88 138 7.0 12.0 0.00 0.00 0.00 43 1000.0
20260831021203 88 138 7.0 10.0 0.00 0.00 0.00 43 1000.0
20260831020703 88 136 6.0 8.0 0.00 0.00 0.00 42 1000.0
20260831020203 89 133 6.0 9.0 0.00 0.00 0.00 42 1000.0
20260831015704 89 143 6.0 8.0 0.00 0.00 0.00 41 1000.0
20260831014703 90 153 5.0 8.0 0.00 0.00 0.00 40 1000.0
20260831014204 90 146 6.0 8.0 0.00 0.00 0.00 40 1000.0
20260831013703 91 142 6.0 8.0 0.00 0.00 0.00 39 1000.0
20260831012203 92 153 3.0 6.0 0.00 0.00 0.00 37 1000.0
20260831011704 92 170 5.0 6.0 0.00 0.00 0.00 36 1000.0
20260831011203 93 176 5.0 6.0 0.00 0.00 0.00 36 1000.0
20260831010704 93 167 5.0 7.0 0.00 0.00 0.00 35 1000.0
20260831010204 93 171 5.0 7.0 0.00 0.00 0.00 35 1000.0
20260831005704 93 176 5.0 8.0 0.00 0.00 0.00 34 1000.0
20260831004703 94 171 6.0 9.0 0.00 0.00 0.00 33 1000.0
20260831004204 94 174 5.0 8.0 0.00 0.00 0.00 33 1000.0
20260831003704 94 169 6.0 10.0 0.00 0.00 0.00 32 1000.0
20260831003203 95 172 6.0 9.0 0.00 0.00 0.00 32 1000.0
20260831002703 95 174 6.0 9.0 0.00 0.00 0.00 31 1000.0
20260831002204 95 170 9.0 12.0 0.00 0.00 0.00 31 1000.0
20260831001704 95 182 6.0 10.0 0.00 0.00 0.00 31 1000.0
20260831001204 96 178 7.0 8.0 0.00 0.00 0.00 31 1000.0
20260831000704 96 177 7.0 12.0 0.00 0.00 0.00 31 1000.0
20260831000204 96 173 7.0 9.0 0.00 0.00 0.00 31 1000.0
20260830235704 96 153 5.0 10.0 0.00 0.00 0.00 31 1000.0
20260830235204 96 162 6.0 10.0 0.00 0.00 0.00 31 1000.0
20260830234204 97 158 6.0 9.0 0.00 0.00 0.00 30 1000.0
20260830233704 97 179 5.0 8.0 0.00 0.00 0.00 30 1000.0
20260830233203 97 183 5.0 9.0 0.00 0.00 0.00 30 1000.0
20260830232704 97 183 6.0 9.0 0.00 0.00 0.00 30 1000.0
20260830232203 97 185 7.0 15.0 0.00 0.00 0.00 30 1000.0
20260830231704 97 123 10.0 17.0 0.00 0.00 0.00 30 1000.0
20260830230703 98 175 7.0 13.0 0.00 0.00 0.00 30 1000.0
20260830230204 97 131 10.0 14.0 0.00 0.00 0.00 30 1000.0
20260830225703 98 168 7.0 12.0 0.00 0.00 0.00 29 1000.0
20260830224704 98 185 10.0 16.0 0.00 0.00 0.00 28 1000.0
20260830224203 98 174 12.0 16.0 0.00 0.00 0.00 28 1000.0
20260830223703 99 176 9.0 15.0 0.00 0.00 0.00 27 1000.0
20260830223203 99 182 9.0 16.0 0.00 0.00 0.00 27 1000.0
20260830222704 99 158 10.0 16.0 0.00 0.00 0.00 27 1000.0
20260830221703 99 152 8.0 20.0 0.00 0.00 0.00 27 1000.0
20260830221204 99 149 9.0 17.0 0.00 0.00 0.00 26 1000.0
20260830220704 99 218 8.0 13.0 0.00 0.00 0.00 28 1000.0
20260830220204 99 206 10.0 15.0 0.00 0.00 0.00 28 1000.0
20260830215704 99 191 11.0 17.0 0.00 0.00 0.00 27 1000.0
20260830214203 100 204 9.0 15.0 0.00 0.00 0.00 27 1000.0
20260830213704 100 204 7.0 14.0 0.00 0.00 0.00 27 1000.0
20260830213204 100 195 7.0 16.0 0.00 0.00 0.00 26 1000.0
20260830212704 100 208 5.0 16.0 0.00 0.00 0.00 27 1000.0
20260830212203 99 195 12.0 20.0 0.00 0.00 0.00 27 1000.0
20260830211704 100 203 6.0 13.0 0.00 0.00 0.00 27 1000.0
20260830211203 99 188 8.0 14.0 0.00 0.00 0.00 27 1000.0
20260830210703 100 198 7.0 14.0 0.00 0.00 0.00 26 1000.0
20260830210204 100 178 10.0 15.0 0.00 0.00 0.00 27 1000.0
20260830205704 99 211 8.0 12.0 0.00 0.00 0.00 28 1000.0
20260830205204 99 208 7.0 14.0 0.00 0.00 0.00 28 1000.0
20260830204204 98 193 8.0 14.0 0.00 0.00 0.00 28 1000.0
20260830203703 99 200 10.0 15.0 0.00 0.00 0.00 28 1000.0
20260830202704 99 190 9.0 15.0 0.00 0.00 0.00 28 1000.0
20260830201704 99 201 9.0 17.0 0.00 0.00 0.00 29 1000.0
20260830201203 98 191 9.0 17.0 0.00 0.00 0.00 29 1000.0
20260830200704 98 206 9.0 14.0 0.00 0.00 0.00 30 1000.0
20260830200204 97 187 10.0 15.0 0.00 0.00 0.00 30 1000.0
20260830195704 98 205 7.0 15.0 0.00 0.00 0.00 30 1000.0
20260830195203 98 222 9.0 13.0 0.00 0.00 0.00 30 1000.0
20260830194704 98 175 10.0 16.0 0.00 0.00 0.00 30 1000.0
20260830194203 98 184 6.0 14.0 0.00 0.00 0.00 30 1000.0
20260830193204 98 218 5.0 9.0 0.00 0.00 0.00 32 1000.0
20260830192203 97 181 5.0 9.0 0.00 0.00 0.00 32 1000.0
20260830191703 97 248 5.0 8.0 0.00 0.00 0.00 32 1000.0
20260830191204 96 184 9.0 14.0 0.00 0.00 0.00 32 1000.0
20260830190704 97 162 7.0 14.0 0.00 0.00 0.00 32 1000.0
20260830185703 97 195 8.0 14.0 0.00 0.00 0.00 31 1000.0
20260830185203 97 192 6.0 14.0 0.00 0.00 0.00 31 1000.0
20260830184704 97 201 9.0 16.0 0.00 0.00 0.00 31 1000.0
20260830184204 97 200 6.0 12.0 0.00 0.00 0.00 32 1000.0
20260830183703 97 188 10.0 20.0 0.00 0.00 0.00 32 1000.0
20260830183203 96 150 10.0 17.0 0.00 0.00 0.00 31 1000.0
20260830182705 97 193 7.0 13.0 0.00 0.00 0.00 31 1000.0
20260830182203 97 205 8.0 15.0 0.00 0.00 0.00 32 1000.0
20260830181703 96 172 10.0 14.0 0.00 0.00 0.00 32 1000.0
20260830181203 95 152 10.0 18.0 0.00 0.00 0.00 32 1000.0
20260830180703 96 171 7.0 13.0 0.00 0.00 0.00 32 1000.0
20260830180203 95 199 7.0 12.0 0.00 0.00 0.00 32 1000.0
20260830175704 95 150 6.0 17.0 0.00 0.00 0.00 33 1000.0
20260830175204 95 179 11.0 16.0 0.00 0.00 0.00 32 1000.0
20260830174704 95 216 10.0 18.0 0.00 0.00 0.00 33 1000.0
20260830174203 94 184 12.0 20.0 0.00 0.00 0.00 32 1000.0
20260830173703 94 180 11.0 20.0 0.00 0.00 0.00 33 1000.0
20260830173203 94 182 13.0 23.0 0.00 0.00 0.00 33 1000.0
20260830172704 94 174 14.0 20.0 0.00 0.00 0.00 34 1000.0
20260830172203 93 173 14.0 20.0 0.00 0.00 0.00 33 1000.0
20260830171703 93 184 13.0 20.0 0.00 0.00 0.00 34 1000.0
20260830171204 93 182 13.0 20.0 0.00 0.00 0.00 34 1000.0
20260830170704 93 184 12.0 18.0 0.00 0.00 0.00 34 1000.0
20260830170203 93 187 12.0 17.0 0.00 0.00 0.00 34 1000.0
20260830165704 93 188 9.0 20.0 0.00 0.00 0.00 35 1000.0
20260830165204 93 194 8.0 18.0 0.00 0.00 0.00 35 1000.0
20260830164703 92 199 10.0 16.0 0.00 0.00 0.00 35 1000.0
20260830164203 92 183 10.0 15.0 0.00 0.00 0.00 36 1000.0
20260830163704 91 178 12.0 17.0 0.00 0.00 0.00 37 1000.0
20260830163204 92 205 10.0 17.0 0.00 0.00 0.00 37 1000.0
20260830162703 90 184 10.0 15.0 0.00 0.00 0.00 38 1000.0
20260830162204 90 199 9.0 15.0 0.00 0.00 0.00 38 1000.0
20260830161704 90 200 8.0 13.0 0.00 0.00 0.00 38 1000.0
20260830161203 90 200 7.0 12.0 0.00 0.00 0.00 39 1000.0
20260830160704 89 184 10.0 16.0 0.00 0.00 0.00 40 1000.0
20260830160203 89 190 8.0 15.0 0.00 0.00 0.00 40 1000.0
20260830154704 88 199 9.0 15.0 0.00 0.00 0.00 42 1000.0
20260830154203 87 182 11.0 20.0 0.00 0.00 0.00 41 1000.0
20260830153704 87 187 9.0 15.0 0.00 0.00 0.00 41 1000.0
20260830153204 87 168 9.0 13.0 0.00 0.00 0.00 43 1000.0
20260830152703 86 180 10.0 14.0 0.00 0.00 0.00 44 1000.0
20260830151703 85 181 9.0 13.0 0.00 0.00 0.00 44 1000.0
20260830151204 85 192 10.0 15.0 0.00 0.00 0.00 44 1000.0
20260830150703 86 176 10.0 14.0 0.00 0.00 0.00 44 1000.0
20260830150203 85 178 10.0 14.0 0.00 0.00 0.00 44 1000.0
20260830145704 85 181 9.0 12.0 0.00 0.00 0.00 44 1000.0
20260830145204 85 187 11.0 15.0 0.00 0.00 0.00 44 1000.0
20260830144704 85 184 10.0 16.0 0.00 0.00 0.00 44 1000.0
20260830144203 84 195 9.0 14.0 0.00 0.00 0.00 45 1000.0
20260830142703 84 182 7.0 10.0 0.00 0.00 0.00 46 1000.0
20260830141703 83 184 9.0 15.0 0.00 0.00 0.00 46 1000.0
20260830141204 83 183 8.0 13.0 0.00 0.00 0.00 47 1000.0
20260830140703 83 176 8.0 13.0 0.00 0.00 0.00 47 1000.0
20260830140204 83 177 7.0 14.0 0.00 0.00 0.00 50 1000.0
20260830135703 82 181 6.0 13.0 0.00 0.00 0.00 50 1000.0
20260830134703 80 177 6.0 7.0 0.00 0.00 0.00 54 1000.0
20260830133204 78 170 4.0 7.0 0.00 0.00 0.00 58 1000.0
20260830132703 78 166 4.0 7.0 0.00 0.00 0.00 60 1000.0
20260830131704 77 128 5.0 7.0 0.00 0.00 0.00 61 1000.0
20260830131203 76 140 6.0 7.0 0.00 0.00 0.00 61 1000.0
20260830130704 76 128 5.0 7.0 0.00 0.00 0.00 61 1000.0
20260830130203 76 138 5.0 7.0 0.00 0.00 0.00 62 1000.0
20260830125704 75 144 5.0 7.0 0.00 0.00 0.00 62 1000.0
20260830125204 75 139 5.0 7.0 0.00 0.00 0.00 63 1000.0
20260830124703 75 138 5.0 7.0 0.00 0.00 0.00 63 1000.0
20260830124204 75 151 5.0 8.0 0.00 0.00 0.00 64 1000.0
20260830123204 74 146 5.0 7.0 0.00 0.00 0.00 64 1000.0
20260830122703 74 147 5.0 7.0 0.00 0.00 0.00 64 1000.0
20260830121704 74 141 3.0 6.0 0.00 0.00 0.00 65 1000.0
20260830121204 73 146 5.0 6.0 0.00 0.00 0.00 66 1000.0
20260830120703 73 145 4.0 6.0 0.00 0.00 0.00 66 1000.0
20260830120204 73 158 3.0 6.0 0.00 0.00 0.00 66 1000.0
20260830115203 73 170 3.0 6.0 0.00 0.00 0.00 67 1000.0
20260830114704 73 154 6.0 8.0 0.00 0.00 0.00 68 1000.0
20260830114204 73 133 6.0 8.0 0.00 0.00 0.00 68 1000.0
20260830113204 73 142 6.0 7.0 0.00 0.00 0.00 67 1000.0
20260830112204 73 137 5.0 6.0 0.00 0.00 0.00 66 1000.0
20260830111703 73 143 5.0 6.0 0.00 0.00 0.00 66 1000.0
20260830111203 73 139 5.0 6.0 0.00 0.00 0.00 66 1000.0
20260830110704 73 142 5.0 6.0 0.00 0.00 0.00 65 1000.0
20260830110204 73 146 4.0 6.0 0.00 0.00 0.00 66 1000.0
20260830105704 73 153 3.0 5.0 0.00 0.00 0.00 66 1000.0
20260830105203 73 162 3.0 6.0 0.00 0.00 0.00 66 1000.0
20260830104704 73 164 3.0 6.0 0.00 0.00 0.00 66 1000.0
20260830104204 73 144 3.0 6.0 0.00 0.00 0.00 66 1000.0
20260830103703 73 142 5.0 6.0 0.00 0.00 0.00 66 1000.0
20260830103204 73 145 3.0 6.0 0.00 0.00 0.00 67 1000.0
20260830102704 73 141 5.0 6.0 0.00 0.00 0.00 67 1000.0
20260830102203 73 146 4.0 6.0 0.00 0.00 0.00 67 1000.0